Home   Weather   Richmond Hill   Past weeks
Flag for Canada

Past Weather in Richmond Hill, Ontario, Canada — Yesterday and Last 2 Weeks

Now
70 °F

Sunny.


Feels Like: 70 °F
Forecast: 77 / 58 °F
Wind: 7 mph from Southwest

Location: Toronto Island Airport

Current Time: Jul 23, 2019 at 11:58:56 am

Latest Report: Jul 23, 2019 at 11:00 am


Visibility: 9 mi

Pressure: 29.92 "Hg

Humidity: 69%

Dew Point: 59 °F

Location of Richmond HillLocation

Past Weather in Richmond Hill — Graph

°F

Richmond Hill Temperature Yesterday

Maximum temperature yesterday: 73 °F (at 12:00 am)
Minimum temperature yesterday: 63 °F (at 7:07 am)
Average temperature yesterday: 68 °F

High & Low Weather Summary for the Past Weeks

 TemperatureHumidityPressure
High91 °F (Jul 20, 5:00 pm)100% (Jul 17, 12:00 am)30.13 "Hg (Jul 17, 12:00 am)
Low61 °F (Jul 9, 6:00 am)42% (Jul 14, 2:00 pm)29.70 "Hg (Jul 11, 5:00 pm)
Average72 °F80%29.90 "Hg
* Reported Jul 8 11:00 am — Jul 23 11:00 am, Richmond Hill. Weather by CustomWeather, © 2019

Note: Actual official high and low records may vary slightly from our data, if they occured in-between our weather recording intervals... More about our weather records

Advertising

Richmond Hill Weather History for the Previous 24 Hours

Scroll right to see more
 ConditionsComfort  
Time TempWeatherWind HumidityBarometerVisibility
11:00 am
Tue, Jul 23
70 °FSunny.7 mph69%29.92 "Hg9 mi
10:00 am72 °FSunny.5 mph61%29.92 "Hg9 mi
9:00 am64 °FScattered clouds.3 mph73%29.93 "Hg9 mi
8:00 am63 °FSunny.5 mph73%29.92 "Hg9 mi
7:00 am64 °FScattered clouds.6 mph64%29.90 "Hg9 mi
6:00 am64 °FPartly sunny.9 mph64%29.90 "Hg9 mi
5:00 am66 °FPartly cloudy.10 mph60%29.89 "Hg9 mi
4:00 am66 °FPassing clouds.8 mph60%29.88 "Hg9 mi
3:00 am66 °FPassing clouds.10 mph64%29.88 "Hg9 mi
2:00 am66 °FClear.8 mph73%29.89 "Hg9 mi
1:00 am68 °FClear.10 mph73%29.90 "Hg9 mi
12:00 am68 °FMostly cloudy.12 mph83%29.90 "Hg9 mi
11:45 pm
Mon, Jul 22
66 °FOvercast.6 mph88%29.89 "Hg9 mi
11:14 pm68 °FLight rain. Mostly cloudy.6 mph83%29.89 "Hg9 mi
11:00 pm68 °FOvercast.9 mph83%29.90 "Hg9 mi
10:10 pm68 °FPassing clouds.8 mph88%29.90 "Hg9 mi
10:00 pm68 °FLight rain. Mostly cloudy.6 mph88%29.89 "Hg9 mi
9:33 pm68 °FMostly cloudy.9 mph88%29.89 "Hg9 mi
9:00 pm68 °FLight rain. Mostly cloudy.7 mph88%29.88 "Hg9 mi
8:45 pm70 °FLight rain. Overcast.10 mph78%29.88 "Hg9 mi
8:00 pm66 °FLight rain. Mostly cloudy.3 mph88%29.86 "Hg9 mi
7:00 pm70 °FPartly sunny.2 mph78%29.85 "Hg9 mi
6:00 pm70 °FOvercast.3 mph78%29.85 "Hg9 mi
5:00 pm68 °FOvercast.7 mph88%29.84 "Hg9 mi
4:00 pm70 °FPassing clouds.9 mph88%29.85 "Hg9 mi
3:00 pm72 °FSunny.9 mph83%29.86 "Hg9 mi
2:00 pm70 °FSunny.8 mph83%29.86 "Hg9 mi
1:00 pm68 °FSunny.8 mph88%29.88 "Hg9 mi
12:00 pm70 °FSunny.8 mph73%29.87 "Hg9 mi
11:00 am70 °FPassing clouds.5 mph73%29.88 "Hg9 mi
Weather by CustomWeather, © 2019

See weather overview